EW6519 Weather Reports


Display with metric or nautical units.
time (UTC)temp
F
wind
direction
speed
MPH
gust
MPH
rain 1hr
in
rain 24hr
in
rain mn
in
humidity
%
barometer
mb
20260904120105 79 228 0.0 0.0 0.00 0.00 0.00 82 1013.1
20260904114553 79 187 0.0 0.0 0.00 0.00 0.00 84 1013.1
20260904113051 78 187 0.0 0.0 0.00 0.00 0.00 84 1012.8
20260904111550 78 187 0.0 0.0 0.00 0.00 0.00 83 1012.7
20260904110049 78 216 0.0 0.0 0.00 0.00 0.00 83 1012.6
20260904104549 79 217 0.0 0.0 0.00 0.00 0.00 83 1012.5
20260904103046 79 216 0.0 0.0 0.00 0.00 0.00 82 1012.5
20260904101545 79 216 0.0 0.0 0.00 0.00 0.00 82 1012.5
20260904100044 79 216 0.0 0.0 0.00 0.00 0.00 81 1012.4
20260904094543 79 208 0.0 0.0 0.00 0.00 0.00 82 1012.4
20260904093042 79 207 0.0 0.0 0.00 0.00 0.00 83 1012.3
20260904091541 79 208 0.0 0.0 0.00 0.00 0.00 84 1012.4
20260904090039 79 208 0.0 0.0 0.00 0.00 0.00 85 1012.4
20260904084547 79 208 0.0 0.0 0.00 0.00 0.00 85 1012.4
20260904083037 80 208 0.0 0.0 0.00 0.00 0.00 84 1012.5
20260904081536 80 208 0.0 0.0 0.00 0.00 0.00 84 1012.5
20260904080050 80 208 0.0 0.0 0.00 0.00 0.00 83 1012.5
20260904074536 80 207 0.0 0.0 0.00 0.00 0.00 81 1012.5
20260904073029 80 207 0.0 0.0 0.00 0.00 0.00 79 1012.4
20260904071532 81 208 0.0 0.0 0.00 0.00 0.00 78 1012.5
20260904070041 81 208 0.0 0.0 0.00 0.00 0.00 79 1012.6
20260904064527 80 249 0.0 0.0 0.00 0.00 0.00 79 1012.6
20260904063028 81 249 0.0 0.0 0.00 0.00 0.00 78 1012.8
20260904061522 81 249 0.0 0.0 0.00 0.00 0.00 77 1012.9
20260904060021 81 248 0.0 0.0 0.00 0.00 0.00 77 1012.9
20260904054531 81 249 0.0 0.0 0.00 0.00 0.00 77 1012.9
20260904053025 81 249 0.0 0.0 0.00 0.00 0.00 77 1012.9
20260904051520 82 249 0.0 0.0 0.00 0.00 0.00 77 1013.0
20260904050016 82 249 0.0 0.0 0.00 0.00 0.00 77 1013.0
20260904044514 82 249 0.0 0.0 0.00 0.00 0.00 76 1013.0
20260904043012 82 249 0.0 0.0 0.00 0.00 0.00 76 1013.0
20260904041510 83 249 0.0 0.0 0.00 0.00 0.00 75 1012.9
20260904040010 83 248 0.0 0.0 0.00 0.00 0.00 74 1012.9
20260904034508 84 249 0.0 0.0 0.00 0.00 0.00 73 1012.9
20260904033008 84 156 0.0 0.0 0.00 0.00 0.00 72 1012.8
20260904031506 84 164 0.0 0.0 0.00 0.00 0.00 71 1012.9
20260904030005 85 160 0.0 0.0 0.00 0.00 0.00 70 1012.9
20260904024504 85 224 0.0 0.0 0.00 0.00 0.00 70 1013.0
20260904023004 85 224 0.0 0.0 0.00 0.00 0.00 69 1013.0
20260904021502 85 224 0.0 0.0 0.00 0.00 0.00 68 1013.1
20260904020001 86 224 0.0 0.0 0.00 0.00 0.00 67 1013.0
20260904014501 86 224 0.0 0.0 0.00 0.00 0.00 67 1013.1
20260904013122 87 224 0.0 0.0 0.00 0.00 0.00 66 1013.1
20260904011644 87 224 0.0 0.0 0.00 0.00 0.00 65 1013.1
20260904010059 88 224 0.0 0.0 0.00 0.00 0.00 64 1012.8
20260904004559 89 224 0.0 0.0 0.00 0.00 0.00 61 1012.8
20260904003057 90 224 0.0 0.0 0.00 0.00 0.00 60 1012.5
20260904001557 90 224 0.0 0.0 0.00 0.00 0.00 59 1012.3
20260904000056 91 224 0.0 0.0 0.00 0.00 0.00 57 1012.3
20260903234555 92 209 0.0 0.0 0.00 0.00 0.00 56 1012.2
20260903233054 93 224 0.0 4.0 0.00 0.00 0.00 55 1012.2
20260903231554 93 239 0.0 0.0 0.00 0.00 0.00 55 1012.0
20260903230053 93 239 0.0 7.0 0.00 0.00 0.00 55 1012.0
20260903224555 93 150 0.0 4.0 0.00 0.00 0.00 54 1012.1
20260903223051 94 274 2.0 6.0 0.00 0.00 0.00 53 1011.9
20260903221551 94 245 0.0 1.0 0.00 0.00 0.00 52 1011.8
20260903220050 95 207 0.0 8.0 0.00 0.00 0.00 50 1011.5
20260903214600 96 143 0.0 7.0 0.00 0.00 0.00 49 1011.5
20260903213049 97 231 0.0 5.0 0.00 0.00 0.00 47 1011.4
20260903211552 96 280 1.0 8.0 0.00 0.00 0.00 47 1011.4
20260903210056 97 239 1.0 8.0 0.00 0.00 0.00 46 1011.7
20260903204558 97 183 0.0 12.0 0.00 0.00 0.00 48 1011.9
20260903203041 98 222 2.0 8.0 0.00 0.00 0.00 46 1012.0
20260903201540 97 275 0.0 5.0 0.00 0.00 0.00 47 1012.3
20260903200039 97 86 0.0 10.0 0.00 0.00 0.00 49 1012.6
20260903194537 96 264 0.0 0.0 0.00 0.00 0.00 48 1012.8
20260903193034 97 219 2.0 8.0 0.00 0.00 0.00 48 1012.9
20260903191534 98 22 0.0 5.0 0.00 0.00 0.00 48 1013.0
20260903190036 98 250 1.0 6.0 0.00 0.00 0.00 47 1013.1
20260903184531 97 279 0.0 5.0 0.00 0.00 0.00 48 1013.1
20260903183028 98 205 0.0 3.0 0.00 0.00 0.00 46 1013.2
20260903181525 98 172 0.0 6.0 0.00 0.00 0.00 47 1013.3
20260903180024 97 237 0.0 3.0 0.00 0.00 0.00 47 1013.5
20260903174521 97 277 0.0 5.0 0.00 0.00 0.00 48 1013.6
20260903173015 96 214 2.0 11.0 0.00 0.00 0.00 49 1013.8
20260903171515 95 297 0.0 4.0 0.00 0.00 0.00 51 1013.9
20260903170020 95 257 0.0 4.0 0.00 0.00 0.00 51 1014.1
20260903164512 95 203 0.0 0.0 0.00 0.00 0.00 50 1014.2
20260903163011 95 307 0.0 12.0 0.00 0.00 0.00 51 1014.3
20260903161509 96 287 0.0 2.0 0.00 0.00 0.00 52 1014.4
20260903160007 96 258 0.0 3.0 0.00 0.00 0.00 50 1014.5
20260903154503 95 40 0.0 6.0 0.00 0.00 0.00 52 1014.5
20260903153108 94 229 0.0 7.0 0.00 0.00 0.00 52 1014.4
20260903151609 94 68 0.0 1.0 0.00 0.00 0.00 53 1014.4
20260903150103 93 242 3.0 8.0 0.00 0.00 0.00 55 1014.5
20260903144557 92 226 1.0 5.0 0.00 0.00 0.00 56 1014.3
20260903143054 92 236 0.0 0.0 0.00 0.00 0.00 56 1014.4
20260903141549 91 207 0.0 0.0 0.00 0.00 0.00 61 1014.4
20260903140048 90 153 0.0 0.0 0.00 0.00 0.00 63 1014.5
20260903134546 88 236 0.0 3.0 0.00 0.00 0.00 65 1014.6
20260903133039 87 254 0.0 3.0 0.00 0.00 0.00 66 1014.8
20260903131537 86 249 0.0 0.0 0.00 0.00 0.00 68 1014.9
20260903130034 84 219 0.0 0.0 0.00 0.00 0.00 71 1015.0
20260903124527 82 230 0.0 0.0 0.00 0.00 0.00 74 1015.1
20260903123029 81 233 0.0 0.0 0.00 0.00 0.00 77 1015.0
20260903121525 80 219 0.0 0.0 0.00 0.00 0.00 78 1015.1